Location: Aalen
(48.8330°N, 10.1000°E)
Time: 00:20:37
(UTC+02:00)

Transit 2A - All Passes

Search period start: 29 July 2021 00:00
Search period end: 08 August 2021 00:00
Orbit: 598 x 960 km, 66.7° (Epoch: 28 July)

Date Brightness Start Highest point End Pass type
(mag) Time Alt. Az. Time Alt. Az. Time Alt. Az.
29 Jul - 07:16:48 10° SSE 07:19:44 18° ESE 07:22:46 10° ENE daylight
29 Jul - 08:57:55 10° SW 09:02:17 65° NW 09:07:01 10° NNE daylight
29 Jul - 10:43:29 10° WNW 10:46:28 17° NNW 10:49:37 10° NNE daylight
29 Jul - 14:14:05 10° NNW 14:17:18 16° NNE 14:20:40 10° ENE daylight
29 Jul - 15:56:29 10° NNW 16:01:39 50° NE 16:07:19 10° ESE daylight
29 Jul - 17:39:50 10° NW 17:44:46 35° WSW 17:50:06 10° S daylight
30 Jul - 06:44:15 10° SE 06:45:49 12° ESE 06:47:25 10° E daylight
30 Jul - 08:23:40 10° SSW 08:28:04 88° SE 08:32:49 10° NE daylight
30 Jul - 10:08:32 10° W 10:11:57 20° NNW 10:15:35 10° NNE daylight
30 Jul - 11:56:36 10° NNW 11:57:10 10° N 11:57:44 10° N daylight
30 Jul - 13:40:03 10° N 13:42:43 14° NNE 13:45:29 10° NE daylight
30 Jul - 15:22:23 10° NNW 15:27:20 38° NE 15:32:44 10° ESE daylight
30 Jul - 17:05:27 10° NW 17:10:40 48° WSW 17:16:22 10° S daylight
31 Jul - 07:49:35 10° SSW 07:53:55 61° ESE 07:58:34 10° NE daylight
31 Jul - 09:33:43 10° W 09:37:29 25° NW 09:41:32 10° NNE daylight
31 Jul - 11:21:13 10° NNW 11:22:30 11° N 11:23:50 10° N daylight
31 Jul - 13:06:01 10° N 13:08:06 12° NNE 13:10:14 10° NE daylight
31 Jul - 14:48:18 10° NNW 14:52:57 30° NE 14:58:00 10° E daylight
31 Jul - 16:31:09 10° NW 16:36:32 66° WSW 16:42:25 10° SSE daylight
31 Jul - 18:16:47 10° W 18:18:55 12° WSW 18:21:06 10° SW daylight
01 Aug - 07:15:43 10° S 07:19:49 41° ESE 07:24:13 10° NE daylight
01 Aug - 08:59:01 10° WSW 09:03:05 33° NW 09:07:27 10° NNE daylight
01 Aug - 10:45:56 10° NW 10:47:52 12° NNW 10:49:51 10° N daylight
01 Aug - 12:31:59 10° N 12:33:27 11° N 12:34:56 10° NNE daylight
01 Aug - 14:14:14 10° NNW 14:18:32 25° NE 14:23:09 10° E daylight
01 Aug - 15:56:55 10° NW 16:02:21 88° SW 16:08:19 10° SSE daylight
01 Aug - 17:41:22 10° WNW 17:44:58 18° WSW 17:48:45 10° SSW daylight
02 Aug - 06:42:03 10° S 06:45:47 28° ESE 06:49:45 10° NE daylight
02 Aug - 08:24:27 10° WSW 08:28:43 44° NW 08:33:20 10° NNE daylight
02 Aug - 10:10:46 10° NW 10:13:15 14° NNW 10:15:50 10° N daylight
02 Aug - 11:57:54 10° N 11:58:47 10° N 11:59:40 10° NNE daylight
02 Aug - 13:40:10 10° NNW 13:44:03 20° NNE 13:48:11 10° ENE daylight
02 Aug - 15:22:44 10° NNW 15:28:07 70° NE 15:34:02 10° SE daylight
02 Aug - 17:06:34 10° WNW 17:10:59 24° WSW 17:15:40 10° SSW daylight
03 Aug - 06:08:41 10° SSE 06:11:49 19° ESE 06:15:05 10° ENE daylight
03 Aug - 07:50:02 10° SW 07:54:25 61° NW 07:59:12 10° NNE daylight
03 Aug - 09:35:42 10° WNW 09:38:41 16° NNW 09:41:49 10° NNE daylight
03 Aug - 11:23:36 10° N 11:24:06 10° N 11:24:36 10° N daylight
03 Aug - 13:06:08 10° NNW 13:09:31 17° NNE 13:13:07 10° ENE daylight
03 Aug - 14:48:35 10° NNW 14:53:51 53° NE 14:59:36 10° SE daylight
03 Aug - 16:32:00 10° NW 16:36:56 34° WSW 16:42:14 10° S daylight
04 Aug - 05:35:53 10° SE 05:37:54 13° ESE 05:39:57 10° ENE daylight
04 Aug - 07:15:46 10° SW 07:20:11 86° NW 07:25:01 10° NE daylight
04 Aug - 09:00:44 10° WNW 09:04:09 20° NNW 09:07:46 10° NNE daylight
04 Aug - 10:48:37 10° NNW 10:49:25 10° N 10:50:14 10° N daylight
04 Aug - 12:32:04 10° NNW 12:34:57 15° NNE 12:37:57 10° NE daylight
04 Aug - 14:14:28 10° NNW 14:19:32 41° NE 14:25:03 10° ESE daylight
04 Aug - 15:57:36 10° NW 16:02:50 46° WSW 16:08:32 10° S daylight
05 Aug - 06:41:39 10° SSW 06:46:01 66° ESE 06:50:45 10° NE daylight
05 Aug - 08:25:54 10° W 08:29:40 25° NW 08:33:43 10° NNE daylight
05 Aug - 10:13:23 10° NNW 10:14:45 11° N 10:16:08 10° N daylight
05 Aug - 11:58:02 10° N 12:00:21 13° NNE 12:02:44 10° NE daylight
05 Aug - 13:40:23 10° NNW 13:45:09 32° NE 13:50:21 10° ESE daylight
05 Aug - 15:23:18 10° NW 15:28:42 63° WSW 15:34:38 10° SSE daylight
05 Aug - 17:09:17 10° W 17:11:02 11° WSW 17:12:51 10° WSW daylight
06 Aug - 06:07:44 10° S 06:11:55 44° ESE 06:16:26 10° NE daylight
06 Aug - 07:51:11 10° WSW 07:55:14 31° NW 07:59:38 10° NNE daylight
06 Aug - 09:38:09 10° NW 09:40:06 12° NNW 09:42:05 10° N daylight
06 Aug - 11:23:57 10° N 11:25:42 12° NNE 11:27:29 10° NNE daylight
06 Aug - 13:06:18 10° NNW 13:10:44 26° NE 13:15:31 10° E daylight
06 Aug - 14:49:02 10° NW 14:54:32 84° WSW 15:00:33 10° SSE daylight
06 Aug - 16:33:38 10° WNW 16:37:07 17° WSW 16:40:44 10° SW daylight
07 Aug - 05:34:01 10° S 05:37:52 30° ESE 05:42:00 10° NE daylight
07 Aug - 07:16:36 10° WSW 07:20:53 41° NW 07:25:31 10° NNE daylight
07 Aug - 09:03:00 10° NW 09:05:28 14° NNW 09:08:03 10° N daylight
07 Aug - 10:49:47 10° N 10:51:01 11° N 10:52:17 10° NNE daylight
07 Aug - 12:32:14 10° NNW 12:36:17 21° NNE 12:40:36 10° E daylight
07 Aug - 14:14:51 10° NNW 14:20:18 74° NE 14:26:18 10° SE daylight
07 Aug - 15:58:46 10° WNW 16:03:07 23° WSW 16:07:44 10° SSW daylight
